Weather History for Kansas City, MO

Change the Weather History Date:

Wednesday, July 3, 2013

  Actual Average Record
Temperature  
Mean Temperature 75 °F -  
Max Temperature 87 °F 85 °F 100 °F (2012)
Min Temperature 64 °F 68 °F 64 °F (1997)
Cooling Degree Days 10    
Growing Degree Days 25 (Base 50)    
Moisture  
Dew Point 56 °F    
Average Humidity 59    
Maximum Humidity 78    
Minimum Humidity 31    
Precipitation  
Precipitation 0.07 in - - ()
Sea Level Pressure  
Sea Level Pressure 30.03 in    
Wind  
Wind Speed 5 mph (SW)    
Max Wind Speed 18 mph    
Max Gust Speed 25 mph    
Visibility 10 miles    
Events Rain , Thunderstorm    
Averages and records for this station are not official NWS values.
T = Trace of Precipitation, MM = Missing Value Source: NWS Daily Summary

Daily Weather History Graph

Daily Weather History Graph

Search for Another Location

Airport:

Trip Planner

Search our weather history database for the weather conditions in past years. The results will help you decide how hot, cold, wet, or windy it might be!

Date:

Astronomy

Jul. 03, 2013 Rise Set
Actual Time 5:57 AM CDT 8:47 PM CDT
Civil Twilight 5:25 AM CDT 9:19 PM CDT
Nautical Twilight 4:44 AM CDT 10:00 PM CDT
Astronomical Twilight 3:58 AM CDT 10:46 PM CDT
Moon 2:34 AM CDT (7/3) 5:00 PM CDT (7/3)
Length of Visible Light 15h 54m
Length of Day
14h 50m
Waning Crescent, 18% of the Moon is Illuminated
Jul 3
Waning Crescent
Jul 8
New
Jul 15
First Quarter
Jul 22
Full
Jul 29
Last Quarter

Hourly Weather History & Observations

Time (CDT) Temp. Heat Index Dew Point Humidity Pressure Visibility Wind Dir Wind Speed Gust Speed Precip Events Conditions
12:54 AM 66.0 °F - 55.0 °F 68% 30.05 in 10.0 mi South 3.5 mph - N/A   Clear
1:54 AM 66.0 °F - 57.0 °F 73% 30.04 in 10.0 mi Calm Calm - N/A   Clear
2:54 AM 66.0 °F - 57.9 °F 75% 30.04 in 10.0 mi Calm Calm - N/A   Clear
3:54 AM 64.9 °F - 57.9 °F 78% 30.03 in 10.0 mi Calm Calm - N/A   Clear
4:54 AM 64.9 °F - 55.9 °F 73% 30.03 in 10.0 mi SW 4.6 mph - N/A   Clear
5:54 AM 64.0 °F - 55.9 °F 75% 30.04 in 10.0 mi SW 4.6 mph - N/A   Clear
6:54 AM 64.0 °F - 55.9 °F 75% 30.04 in 10.0 mi Calm Calm - N/A   Clear
7:54 AM 68.0 °F - 57.0 °F 68% 30.06 in 10.0 mi SW 4.6 mph - N/A   Clear
8:54 AM 72.0 °F - 57.0 °F 59% 30.06 in 10.0 mi Calm Calm - N/A   Clear
9:54 AM 75.9 °F - 57.0 °F 52% 30.06 in 10.0 mi West 5.8 mph - N/A   Scattered Clouds
10:54 AM 80.1 °F 80.2 °F 55.9 °F 43% 30.05 in 10.0 mi WNW 6.9 mph - N/A   Partly Cloudy
11:54 AM 82.0 °F 81.6 °F 55.9 °F 41% 30.04 in 10.0 mi NW 8.1 mph - N/A   Clear
12:54 PM 82.9 °F 82.0 °F 55.0 °F 38% 30.03 in 10.0 mi Variable 3.5 mph - N/A   Clear
1:54 PM 84.9 °F 83.3 °F 54.0 °F 34% 30.01 in 10.0 mi NNW 5.8 mph - N/A   Clear
2:54 PM 82.9 °F 81.8 °F 53.1 °F 36% 29.99 in 10.0 mi Calm Calm - N/A   Partly Cloudy
3:54 PM 84.9 °F 83.3 °F 54.0 °F 34% 29.98 in 10.0 mi WSW 5.8 mph - N/A   Scattered Clouds
4:21 PM 86.0 °F - 51.8 °F 31% 29.99 in 10.0 mi West 5.8 mph - N/A Thunderstorm Thunderstorm
4:39 PM 86.0 °F - 51.8 °F 31% 29.99 in 10.0 mi West 4.6 mph - N/A Thunderstorm Clear
4:54 PM 84.0 °F - 51.1 °F 32% 29.98 in 10.0 mi East 8.1 mph - N/A Thunderstorm Scattered Clouds
5:17 PM 75.2 °F - 55.4 °F 50% 30.01 in 10.0 mi NNE 18.4 mph 25.3 mph N/A Thunderstorm Scattered Clouds
5:54 PM 72.0 °F - 54.0 °F 53% 30.00 in 10.0 mi NE 17.3 mph - N/A Thunderstorm Thunderstorm
6:33 PM 69.8 °F - 57.2 °F 64% 30.03 in 9.0 mi ESE 10.4 mph 20.7 mph 0.00 in Rain , Thunderstorm Light Rain
6:54 PM 68.0 °F - 59.0 °F 73% 30.03 in 10.0 mi ESE 11.5 mph - 0.01 in Rain Light Rain
7:16 PM 68.0 °F - 59.0 °F 73% 30.06 in 9.0 mi SSE 12.7 mph 18.4 mph 0.00 in Rain , Thunderstorm Light Rain
7:35 PM 66.2 °F - 59.0 °F 78% 30.06 in 8.0 mi South 15.0 mph - 0.02 in Rain Light Rain
7:54 PM 66.9 °F - 57.9 °F 73% 30.05 in 10.0 mi South 13.8 mph - 0.02 in   Overcast
8:54 PM 68.0 °F - 55.9 °F 65% 30.01 in 10.0 mi South 11.5 mph - 0.03 in Rain Light Rain
9:54 PM 66.9 °F - 57.9 °F 73% 30.00 in 10.0 mi Calm Calm - 0.01 in   Scattered Clouds
10:54 PM 64.9 °F - 57.9 °F 78% 30.01 in 10.0 mi SSW 4.6 mph - N/A   Clear
11:54 PM 64.0 °F - 57.0 °F 78% 30.02 in 10.0 mi SSW 5.8 mph - N/A   Clear